Weather History for Boonville, MO

Change the Weather History Date:

Monday, June 3, 2013

  Actual Average Record
Temperature  
Mean Temperature 62 °F -  
Max Temperature 90 °F 77 °F 93 °F (2011)
Min Temperature 52 °F 58 °F 47 °F (1969)
Degree Days  
Heating Degree Days 2    
Growing Degree Days 12 (Base 50)    
Moisture  
Dew Point 51 °F    
Average Humidity 66    
Maximum Humidity 95    
Minimum Humidity 43    
Precipitation  
Precipitation 0.00 in - - ()
Sea Level Pressure  
Sea Level Pressure 30.03 in    
Wind  
Wind Speed 3 mph (East)    
Max Wind Speed 9 mph    
Max Gust Speed -    
Visibility 10 miles    
Events      
Averages and records for this station are not official NWS values.
T = Trace of Precipitation, MM = Missing Value Source: NWS Daily Summary

Daily Weather History Graph

Daily Weather History Graph

Search for Another Location

Airport:

Trip Planner

Search our weather history database for the weather conditions in past years. The results will help you decide how hot, cold, wet, or windy it might be!

Date:

Astronomy

Jun. 03, 2013 Rise Set
Actual Time 5:46 AM CDT 8:31 PM CDT
Civil Twilight 5:14 AM CDT 9:03 PM CDT
Nautical Twilight 4:35 AM CDT 9:43 PM CDT
Astronomical Twilight 3:50 AM CDT 10:28 PM CDT
Moon 2:42 AM CDT (6/3) 4:04 PM CDT (6/3)
Length of Visible Light 15h 48m
Length of Day
14h 45m
Waning Crescent, 22% of the Moon is Illuminated
Jun 3
Waning Crescent
Jun 8
New
Jun 16
First Quarter
Jun 23
Full
Jun 29
Last Quarter

Hourly Weather History & Observations

Time (CDT) Temp. Dew Point Humidity Pressure Visibility Wind Dir Wind Speed Gust Speed Precip Events Conditions
12:15 AM 57.4 °F 50.2 °F 77% 30.05 in 10.0 mi North 3.5 mph - N/A   Overcast
12:35 AM 57.0 °F 49.8 °F 77% 30.05 in 10.0 mi Calm Calm - N/A   Overcast
12:55 AM 57.0 °F 49.6 °F 76% 30.05 in 10.0 mi Calm Calm - N/A   Overcast
1:15 AM 56.5 °F 50.2 °F 79% 30.05 in 10.0 mi North 3.5 mph - N/A   Overcast
1:35 AM 56.5 °F 49.8 °F 78% 30.05 in 10.0 mi North 4.6 mph - N/A   Overcast
1:55 AM 56.1 °F 49.6 °F 79% 30.05 in 10.0 mi Calm Calm - N/A   Overcast
2:15 AM 56.3 °F 49.5 °F 78% 30.05 in 10.0 mi Calm Calm - N/A   Overcast
2:35 AM 55.9 °F 49.6 °F 79% 30.05 in 10.0 mi Calm Calm - N/A   Overcast
2:55 AM 55.4 °F 49.5 °F 80% 30.05 in 10.0 mi Calm Calm - N/A   Overcast
3:15 AM 54.7 °F 49.3 °F 82% 30.05 in 10.0 mi Calm Calm - N/A   Overcast
3:35 AM 54.0 °F 51.3 °F 91% 30.05 in 10.0 mi Calm Calm - N/A   Overcast
3:55 AM 53.8 °F 50.7 °F 89% 30.06 in 10.0 mi Calm Calm - N/A   Overcast
4:15 AM 53.8 °F 50.7 °F 89% 30.05 in 10.0 mi Calm Calm - N/A   Overcast
4:35 AM 53.8 °F 51.1 °F 91% 30.07 in 10.0 mi Calm Calm - N/A   Overcast
4:55 AM 53.4 °F 50.9 °F 91% 30.06 in 10.0 mi NNE 3.5 mph - N/A   Overcast
5:15 AM 53.6 °F 50.4 °F 89% 30.07 in 10.0 mi Calm Calm - N/A   Overcast
5:35 AM 53.1 °F 51.1 °F 93% 30.08 in 10.0 mi Calm Calm - N/A   Overcast
5:55 AM 52.9 °F 51.6 °F 95% 30.09 in 10.0 mi Calm Calm - N/A   Overcast
6:15 AM 53.1 °F 51.4 °F 94% 30.09 in 10.0 mi Calm Calm - N/A   Mostly Cloudy
6:35 AM 52.5 °F 51.3 °F 95% 30.09 in 10.0 mi Calm Calm - N/A   Scattered Clouds
6:55 AM 53.2 °F 52.0 °F 95% 30.08 in 10.0 mi Calm Calm - N/A   Clear
7:15 AM 56.3 °F 52.9 °F 88% 30.09 in 10.0 mi Calm Calm - N/A   Clear
7:35 AM 58.3 °F 51.8 °F 79% 30.09 in 10.0 mi Calm Calm - N/A   Clear
7:55 AM 59.7 °F 50.2 °F 71% 30.09 in 10.0 mi East 3.5 mph - N/A   Scattered Clouds
8:15 AM 60.6 °F 49.1 °F 66% 30.09 in 10.0 mi ENE 4.6 mph - N/A   Scattered Clouds
8:35 AM 61.3 °F 48.6 °F 63% 30.10 in 10.0 mi East 4.6 mph - N/A   Mostly Cloudy
8:55 AM 61.7 °F 46.2 °F 57% 30.10 in 10.0 mi ENE 3.5 mph - N/A   Scattered Clouds
9:15 AM 62.2 °F 46.2 °F 56% 30.10 in 10.0 mi Calm Calm - N/A   Clear
9:35 AM 62.4 °F 46.6 °F 56% 30.10 in 10.0 mi Calm Calm - N/A   Clear
9:55 AM 62.2 °F 46.6 °F 57% 30.09 in 10.0 mi ENE 3.5 mph - N/A   Scattered Clouds
10:15 AM 63.5 °F 46.6 °F 54% 30.09 in 10.0 mi Calm Calm - N/A   Mostly Cloudy
10:35 AM 64.2 °F 47.3 °F 54% 30.08 in 10.0 mi Calm Calm - N/A   Mostly Cloudy
10:55 AM 64.6 °F 47.7 °F 54% 30.07 in 10.0 mi Calm Calm - N/A   Clear
11:15 AM 65.3 °F 48.4 °F 54% 30.07 in 10.0 mi Calm Calm - N/A   Clear
11:35 AM 65.7 °F 48.7 °F 54% 30.06 in 10.0 mi Calm Calm - N/A   Unknown
11:55 AM 66.4 °F 49.8 °F 55% 30.05 in 10.0 mi ENE 6.9 mph - N/A   Unknown
12:15 PM 66.9 °F 49.1 °F 53% 30.05 in 1.2 mi ENE 4.6 mph - N/A   Haze
12:35 PM 67.5 °F 48.7 °F 51% 30.05 in 1.0 mi ESE 4.6 mph - N/A   Haze
12:55 PM 68.2 °F 49.6 °F 51% 30.04 in 10.0 mi SSE 3.5 mph - N/A   Clear
1:15 PM 68.5 °F 48.9 °F 49% 30.03 in 5.0 mi ENE 5.8 mph - N/A   Haze
1:35 PM 69.1 °F 49.5 °F 50% 30.01 in 10.0 mi ENE 6.9 mph - N/A   Clear
1:55 PM 70.2 °F 49.6 °F 48% 30.01 in 10.0 mi SSE 8.1 mph - N/A   Clear
2:15 PM 70.5 °F 50.0 °F 48% 30.01 in 10.0 mi South 3.5 mph - N/A   Unknown
2:35 PM 70.7 °F 47.5 °F 44% 30.01 in 10.0 mi East 3.5 mph - N/A   Unknown
2:55 PM 71.6 °F 48.2 °F 43% 30.01 in 10.0 mi East 5.8 mph - N/A   Clear
3:15 PM 72.1 °F 48.7 °F 43% 30.00 in 10.0 mi SE 8.1 mph - N/A   Clear
3:35 PM 72.5 °F 51.3 °F 47% 29.99 in 10.0 mi SSE 4.6 mph - N/A   Clear
3:55 PM 73.0 °F 53.1 °F 49% 29.98 in 10.0 mi ESE 3.5 mph - N/A   Clear
4:15 PM 73.2 °F 52.2 °F 48% 29.98 in 10.0 mi SSE 5.8 mph - N/A   Clear
4:35 PM 73.2 °F 50.9 °F 45% 29.97 in 10.0 mi SSE 5.8 mph - N/A   Clear
4:55 PM 73.0 °F 51.4 °F 47% 29.96 in 10.0 mi SSE 9.2 mph - N/A   Clear
5:15 PM 73.0 °F 52.5 °F 48% 29.96 in 10.0 mi SE 6.9 mph - N/A   Clear
5:35 PM 72.9 °F 51.3 °F 47% 29.96 in 10.0 mi ESE 5.8 mph - N/A   Clear
5:55 PM 72.7 °F 51.4 °F 47% 29.96 in 10.0 mi SE 6.9 mph - N/A   Clear
6:15 PM 72.3 °F 51.4 °F 48% 29.96 in 10.0 mi ESE 6.9 mph - N/A   Clear
6:35 PM 71.8 °F 50.4 °F 47% 29.96 in 10.0 mi ESE 6.9 mph - N/A   Clear
6:55 PM 71.4 °F 50.5 °F 48% 29.96 in 10.0 mi ESE 6.9 mph - N/A   Clear
7:15 PM 70.7 °F 51.6 °F 51% 29.96 in 10.0 mi ESE 5.8 mph - N/A   Clear
7:35 PM 69.8 °F 52.3 °F 54% 29.96 in 10.0 mi ESE 4.6 mph - N/A   Clear
7:55 PM 68.5 °F 53.6 °F 59% 29.96 in 10.0 mi East 4.6 mph - N/A   Clear
8:15 PM 66.9 °F 54.0 °F 63% 29.96 in 10.0 mi ESE 5.8 mph - N/A   Clear
8:35 PM 64.6 °F 53.6 °F 68% 29.96 in 10.0 mi ESE 5.8 mph - N/A   Clear
8:55 PM 63.7 °F 53.1 °F 68% 29.97 in 10.0 mi East 5.8 mph - N/A   Clear
9:15 PM 63.1 °F 52.9 °F 69% 29.98 in 10.0 mi East 5.8 mph - N/A   Clear
9:35 PM 62.4 °F 53.1 °F 71% 29.98 in 10.0 mi East 5.8 mph - N/A   Clear
9:55 PM 62.1 °F 53.1 °F 72% 29.98 in 10.0 mi East 6.9 mph - N/A   Clear
10:15 PM 61.7 °F 53.4 °F 74% 30.00 in 10.0 mi East 5.8 mph - N/A   Clear
10:35 PM 61.3 °F 53.4 °F 75% 30.00 in 10.0 mi East 5.8 mph - N/A   Clear
10:55 PM 61.0 °F 53.1 °F 75% 30.00 in 10.0 mi East 6.9 mph - N/A   Clear
11:15 PM 60.4 °F 52.9 °F 76% 30.00 in 10.0 mi East 6.9 mph - N/A   Clear
11:35 PM 60.4 °F 52.5 °F 75% 30.00 in 10.0 mi East 5.8 mph - N/A   Clear
11:55 PM 59.5 °F 52.3 °F 77% 30.00 in 10.0 mi ESE 4.6 mph - N/A   Clear